Time,TemperatureF,DewpointF,PressureIn,WindDirection,WindDirectionDegrees,WindSpeedMPH,WindSpeedGustMPH,Humidity,HourlyPrecipIn,Conditions,Clouds,dailyrainin,SoftwareType,DateUTC
2013-08-25 00:01:00,54.1,51.2,30.33,NNE,30,0.0,0.0,90,0.00,,,0.00,WeatherDisplay:10.37,2013-08-25 04:01:00,
2013-08-25 00:02:00,54.1,51.2,30.33,NNE,30,0.0,0.0,90,0.00,,,0.00,WeatherDisplay:10.37,2013-08-25 04:02:00,
2013-08-25 00:07:00,54.1,51.2,30.33,NNE,30,0.0,0.0,90,0.00,,,0.00,WeatherDisplay:10.37,2013-08-25 04:07:00,
2013-08-25 00:12:00,54.0,51.1,30.33,NNE,30,0.0,0.0,90,0.00,,,0.00,WeatherDisplay:10.37,2013-08-25 04:12:00,
2013-08-25 00:17:00,53.9,51.0,30.34,NNE,30,0.0,0.0,90,0.00,,,0.00,WeatherDisplay:10.37,2013-08-25 04:17:00,
2013-08-25 00:22:00,54.0,51.1,30.33,NNE,30,0.0,0.0,90,0.00,,,0.00,WeatherDisplay:10.37,2013-08-25 04:22:00,
2013-08-25 00:27:00,53.9,51.0,30.33,NNE,30,0.0,0.0,90,0.00,,,0.00,WeatherDisplay:10.37,2013-08-25 04:27:00,
2013-08-25 00:32:00,53.8,50.9,30.34,NNE,30,0.0,0.0,90,0.00,,,0.00,WeatherDisplay:10.37,2013-08-25 04:32:00,
2013-08-25 00:37:00,53.8,50.9,30.34,NNE,30,0.0,0.0,90,0.00,,,0.00,WeatherDisplay:10.37,2013-08-25 04:37:00,
2013-08-25 00:42:00,53.8,50.9,30.34,NNE,30,0.0,0.0,90,0.00,,,0.00,WeatherDisplay:10.37,2013-08-25 04:42:00,
2013-08-25 00:47:00,53.7,50.8,30.34,NNE,30,0.0,0.0,90,0.00,,,0.00,WeatherDisplay:10.37,2013-08-25 04:47:00,
2013-08-25 00:52:00,53.7,50.8,30.34,NNE,30,0.0,0.0,90,0.00,,,0.00,WeatherDisplay:10.37,2013-08-25 04:52:00,
2013-08-25 00:57:00,53.7,50.5,30.33,NNE,30,0.0,0.0,89,0.00,,,0.00,WeatherDisplay:10.37,2013-08-25 04:57:00,
2013-08-25 01:02:00,53.7,50.5,30.33,NNE,30,0.0,0.0,89,0.00,,,0.00,WeatherDisplay:10.37,2013-08-25 05:02:00,
2013-08-25 01:07:00,53.7,50.5,30.34,NNE,30,0.0,0.0,89,0.00,,,0.00,WeatherDisplay:10.37,2013-08-25 05:07:00,
2013-08-25 01:12:00,53.7,50.5,30.34,NNE,30,0.0,0.0,89,0.00,,,0.00,WeatherDisplay:10.37,2013-08-25 05:12:00,
2013-08-25 01:17:00,53.6,50.7,30.33,NNE,30,0.0,0.0,90,0.00,,,0.00,WeatherDisplay:10.37,2013-08-25 05:17:00,
2013-08-25 01:22:00,53.5,50.6,30.33,NNE,30,0.0,0.0,90,0.00,,,0.00,WeatherDisplay:10.37,2013-08-25 05:22:00,
2013-08-25 01:28:00,53.3,50.4,30.33,NNE,30,0.0,0.0,90,0.00,,,0.00,WeatherDisplay:10.37,2013-08-25 05:28:00,
2013-08-25 01:33:00,53.2,50.3,30.33,NNE,30,0.0,0.0,90,0.00,,,0.00,WeatherDisplay:10.37,2013-08-25 05:33:00,
2013-08-25 01:38:00,53.1,50.2,30.33,NNE,30,0.0,0.0,90,0.00,,,0.00,WeatherDisplay:10.37,2013-08-25 05:38:00,
2013-08-25 01:43:00,53.0,50.1,30.33,NNE,30,0.0,0.0,90,0.00,,,0.00,WeatherDisplay:10.37,2013-08-25 05:43:00,
2013-08-25 01:48:00,52.8,49.9,30.33,NNE,30,0.0,0.0,90,0.00,,,0.00,WeatherDisplay:10.37,2013-08-25 05:48:00,
2013-08-25 01:53:00,52.8,49.6,30.33,NNE,30,0.0,0.0,89,0.00,,,0.00,WeatherDisplay:10.37,2013-08-25 05:53:00,
2013-08-25 01:58:00,52.6,49.8,30.33,NNE,30,0.0,0.0,90,0.00,,,0.00,WeatherDisplay:10.37,2013-08-25 05:58:00,
2013-08-25 02:03:00,52.7,49.5,30.33,NNE,30,0.0,0.0,89,0.00,,,0.00,WeatherDisplay:10.37,2013-08-25 06:03:00,
2013-08-25 02:08:00,52.7,49.5,30.33,NNE,30,0.0,0.0,89,0.00,,,0.00,WeatherDisplay:10.37,2013-08-25 06:08:00,
2013-08-25 02:13:00,52.7,49.5,30.33,NNE,30,0.0,0.0,89,0.00,,,0.00,WeatherDisplay:10.37,2013-08-25 06:13:00,
2013-08-25 02:18:00,52.6,49.4,30.33,NNE,30,0.0,0.0,89,0.00,,,0.00,WeatherDisplay:10.37,2013-08-25 06:18:00,
2013-08-25 02:23:00,52.6,49.4,30.33,NNE,30,0.0,0.0,89,0.00,,,0.00,WeatherDisplay:10.37,2013-08-25 06:23:00,
2013-08-25 02:28:00,52.4,49.3,30.33,NNE,30,0.0,0.0,89,0.00,,,0.00,WeatherDisplay:10.37,2013-08-25 06:28:00,
2013-08-25 02:33:00,52.2,49.4,30.32,NNE,30,0.0,0.0,90,0.00,,,0.00,WeatherDisplay:10.37,2013-08-25 06:33:00,
2013-08-25 02:38:00,52.2,49.4,30.32,NNE,30,0.0,0.0,90,0.00,,,0.00,WeatherDisplay:10.37,2013-08-25 06:38:00,
2013-08-25 02:43:00,52.1,49.3,30.32,NNE,30,0.0,0.0,90,0.00,,,0.00,WeatherDisplay:10.37,2013-08-25 06:43:00,
2013-08-25 02:48:00,51.9,49.1,30.32,NNE,30,0.0,0.0,90,0.00,,,0.00,WeatherDisplay:10.37,2013-08-25 06:48:00,
2013-08-25 02:53:00,51.7,48.9,30.32,NNE,30,0.0,0.0,90,0.00,,,0.00,WeatherDisplay:10.37,2013-08-25 06:53:00,
2013-08-25 02:58:00,51.6,48.8,30.32,NNE,30,0.0,0.0,90,0.00,,,0.00,WeatherDisplay:10.37,2013-08-25 06:58:00,
2013-08-25 03:03:00,51.6,48.5,30.32,NNE,30,0.0,0.0,89,0.00,,,0.00,WeatherDisplay:10.37,2013-08-25 07:03:00,
2013-08-25 03:08:00,51.4,48.6,30.32,NNE,30,0.0,0.0,90,0.00,,,0.00,WeatherDisplay:10.37,2013-08-25 07:08:00,
2013-08-25 03:13:00,51.2,48.4,30.33,NNE,30,0.0,0.0,90,0.00,,,0.00,WeatherDisplay:10.37,2013-08-25 07:13:00,
2013-08-25 03:18:00,51.2,48.1,30.33,NNE,30,0.0,0.0,89,0.00,,,0.00,WeatherDisplay:10.37,2013-08-25 07:18:00,
2013-08-25 03:23:00,51.2,48.1,30.33,NNE,30,0.0,0.0,89,0.00,,,0.00,WeatherDisplay:10.37,2013-08-25 07:23:00,
2013-08-25 03:28:00,51.1,48.0,30.33,NNE,30,0.0,0.0,89,0.00,,,0.00,WeatherDisplay:10.37,2013-08-25 07:28:00,
2013-08-25 03:33:00,51.1,48.0,30.33,NNE,30,0.0,0.0,89,0.00,,,0.00,WeatherDisplay:10.37,2013-08-25 07:33:00,
2013-08-25 03:38:00,50.9,47.8,30.33,NNE,30,0.0,0.0,89,0.00,,,0.00,WeatherDisplay:10.37,2013-08-25 07:38:00,
2013-08-25 03:43:00,50.8,47.7,30.33,NNE,30,0.0,0.0,89,0.00,,,0.00,WeatherDisplay:10.37,2013-08-25 07:43:00,
2013-08-25 03:48:00,50.9,47.8,30.33,NNE,30,0.0,0.0,89,0.00,,,0.00,WeatherDisplay:10.37,2013-08-25 07:48:00,
2013-08-25 03:53:00,50.9,47.8,30.33,NNE,30,0.0,0.0,89,0.00,,,0.00,WeatherDisplay:10.37,2013-08-25 07:53:00,
2013-08-25 03:58:00,50.9,47.8,30.33,NNE,30,0.0,0.0,89,0.00,,,0.00,WeatherDisplay:10.37,2013-08-25 07:58:00,
2013-08-25 04:03:00,50.9,47.8,30.33,NNE,30,0.0,0.0,89,0.00,,,0.00,WeatherDisplay:10.37,2013-08-25 08:03:00,
2013-08-25 04:08:00,50.9,47.8,30.33,NNE,30,0.0,0.0,89,0.00,,,0.00,WeatherDisplay:10.37,2013-08-25 08:08:00,
2013-08-25 04:13:00,50.7,47.6,30.33,NNE,30,0.0,0.0,89,0.00,,,0.00,WeatherDisplay:10.37,2013-08-25 08:13:00,
2013-08-25 04:18:00,50.8,47.7,30.33,NNE,30,0.0,0.0,89,0.00,,,0.00,WeatherDisplay:10.37,2013-08-25 08:18:00,
2013-08-25 04:23:00,50.8,47.7,30.33,NNE,30,0.0,0.0,89,0.00,,,0.00,WeatherDisplay:10.37,2013-08-25 08:23:00,
2013-08-25 04:28:00,50.7,47.6,30.33,NNE,30,0.0,0.0,89,0.00,,,0.00,WeatherDisplay:10.37,2013-08-25 08:28:00,
2013-08-25 04:33:00,50.7,47.6,30.33,NNE,30,0.0,0.0,89,0.00,,,0.00,WeatherDisplay:10.37,2013-08-25 08:33:00,
2013-08-25 04:38:00,50.6,47.5,30.33,NNE,30,0.0,0.0,89,0.00,,,0.00,WeatherDisplay:10.37,2013-08-25 08:38:00,
2013-08-25 04:43:00,50.6,47.5,30.33,NNE,30,0.0,0.0,89,0.00,,,0.00,WeatherDisplay:10.37,2013-08-25 08:43:00,
2013-08-25 04:48:00,50.5,47.4,30.33,NNE,30,0.0,0.0,89,0.00,,,0.00,WeatherDisplay:10.37,2013-08-25 08:48:00,
2013-08-25 04:53:00,50.4,47.3,30.34,NNE,30,0.0,0.0,89,0.00,,,0.00,WeatherDisplay:10.37,2013-08-25 08:53:00,
2013-08-25 04:58:00,50.3,47.2,30.34,NNE,30,0.0,0.0,89,0.00,,,0.00,WeatherDisplay:10.37,2013-08-25 08:58:00,
2013-08-25 05:03:00,50.4,47.3,30.34,NNE,30,0.0,0.0,89,0.00,,,0.00,WeatherDisplay:10.37,2013-08-25 09:03:00,
2013-08-25 05:08:00,50.4,47.3,30.34,NNE,30,0.0,0.0,89,0.00,,,0.00,WeatherDisplay:10.37,2013-08-25 09:08:00,
2013-08-25 05:13:00,50.4,47.3,30.34,NNE,30,0.0,0.0,89,0.00,,,0.00,WeatherDisplay:10.37,2013-08-25 09:13:00,
2013-08-25 05:18:00,50.3,47.2,30.34,NNE,30,0.0,0.0,89,0.00,,,0.00,WeatherDisplay:10.37,2013-08-25 09:18:00,
2013-08-25 05:23:00,50.4,47.3,30.34,NNE,30,0.0,0.0,89,0.00,,,0.00,WeatherDisplay:10.37,2013-08-25 09:23:00,
2013-08-25 05:28:00,50.4,47.3,30.34,NNE,30,0.0,0.0,89,0.00,,,0.00,WeatherDisplay:10.37,2013-08-25 09:28:00,
2013-08-25 05:33:00,50.4,47.3,30.34,NNE,30,0.0,0.0,89,0.00,,,0.00,WeatherDisplay:10.37,2013-08-25 09:33:00,
2013-08-25 05:38:00,50.5,47.4,30.34,NNE,30,0.0,0.0,89,0.00,,,0.00,WeatherDisplay:10.37,2013-08-25 09:38:00,
2013-08-25 05:43:00,50.5,47.4,30.34,NNE,30,0.0,0.0,89,0.00,,,0.00,WeatherDisplay:10.37,2013-08-25 09:43:00,
2013-08-25 05:48:00,50.5,47.4,30.34,NNE,30,0.0,0.0,89,0.00,,,0.00,WeatherDisplay:10.37,2013-08-25 09:48:00,
2013-08-25 05:53:00,50.7,47.6,30.34,NNE,30,0.0,0.0,89,0.00,,,0.00,WeatherDisplay:10.37,2013-08-25 09:53:00,
2013-08-25 05:58:00,50.7,47.6,30.34,NNE,30,0.0,0.0,89,0.00,,,0.00,WeatherDisplay:10.37,2013-08-25 09:58:00,
2013-08-25 06:03:00,50.7,47.6,30.34,NNE,30,0.0,0.0,89,0.00,CLR,,0.00,WeatherDisplay:10.37,2013-08-25 10:03:00,
2013-08-25 06:08:00,50.7,47.6,30.34,NNE,30,0.0,0.0,89,0.00,CLR,,0.00,WeatherDisplay:10.37,2013-08-25 10:08:00,
2013-08-25 06:13:00,50.7,47.6,30.34,NNE,30,0.0,0.0,89,0.00,CLR,,0.00,WeatherDisplay:10.37,2013-08-25 10:13:00,
2013-08-25 06:18:00,50.6,47.5,30.34,NNE,30,0.0,0.0,89,0.00,CLR,,0.00,WeatherDisplay:10.37,2013-08-25 10:18:00,
2013-08-25 06:23:00,50.8,47.7,30.35,NNE,30,0.0,0.0,89,0.00,CLR,,0.00,WeatherDisplay:10.37,2013-08-25 10:23:00,
2013-08-25 06:28:00,50.8,47.7,30.35,NNE,30,0.0,0.0,89,0.00,CLR,,0.00,WeatherDisplay:10.37,2013-08-25 10:28:00,
2013-08-25 06:33:00,50.7,47.6,30.35,NNE,30,0.0,0.0,89,0.00,CLR,,0.00,WeatherDisplay:10.37,2013-08-25 10:33:00,
2013-08-25 06:38:00,50.8,47.7,30.35,NNE,30,0.0,0.0,89,0.00,CLR,,0.00,WeatherDisplay:10.37,2013-08-25 10:38:00,
2013-08-25 06:43:00,50.8,47.7,30.35,NNE,30,0.0,0.0,89,0.00,CLR,,0.00,WeatherDisplay:10.37,2013-08-25 10:43:00,
2013-08-25 06:48:00,50.9,47.8,30.35,NNE,30,0.0,0.0,89,0.00,CLR,,0.00,WeatherDisplay:10.37,2013-08-25 10:48:00,
2013-08-25 06:53:00,51.0,47.9,30.35,NNE,30,0.0,0.0,89,0.00,CLR,,0.00,WeatherDisplay:10.37,2013-08-25 10:53:00,
2013-08-25 06:58:00,51.0,47.9,30.35,NNE,30,0.0,0.0,89,0.00,CLR,,0.00,WeatherDisplay:10.37,2013-08-25 10:58:00,
2013-08-25 07:03:00,51.1,48.0,30.35,NNE,30,0.0,0.0,89,0.00,CLR,,0.00,WeatherDisplay:10.37,2013-08-25 11:03:00,
2013-08-25 07:08:00,51.2,48.1,30.35,NNE,30,0.0,0.0,89,0.00,CLR,,0.00,WeatherDisplay:10.37,2013-08-25 11:08:00,
2013-08-25 07:13:00,51.2,48.1,30.36,NNE,30,0.0,0.0,89,0.00,CLR,,0.00,WeatherDisplay:10.37,2013-08-25 11:13:00,
2013-08-25 07:18:00,51.4,48.3,30.36,NNE,30,0.0,0.0,89,0.00,CLR,,0.00,WeatherDisplay:10.37,2013-08-25 11:18:00,
2013-08-25 07:23:00,51.5,48.4,30.36,NNE,30,0.0,0.0,89,0.01,RA,,0.01,WeatherDisplay:10.37,2013-08-25 11:23:00,
2013-08-25 07:28:00,51.6,48.5,30.35,NNE,30,0.0,0.0,89,0.01,RA,,0.01,WeatherDisplay:10.37,2013-08-25 11:28:00,
2013-08-25 07:33:00,51.9,48.8,30.36,NNE,30,0.0,0.0,89,0.01,CLR,,0.01,WeatherDisplay:10.37,2013-08-25 11:33:00,
2013-08-25 07:38:00,52.5,49.4,30.36,NNE,30,0.0,0.0,89,0.01,CLR,,0.01,WeatherDisplay:10.37,2013-08-25 11:38:00,
2013-08-25 07:43:00,52.7,49.5,30.36,NNE,30,0.0,0.0,89,0.01,CLR,,0.01,WeatherDisplay:10.37,2013-08-25 11:43:00,
2013-08-25 07:48:00,53.1,50.2,30.36,NNE,30,0.0,0.0,90,0.01,CLR,,0.01,WeatherDisplay:10.37,2013-08-25 11:48:00,
2013-08-25 07:53:00,53.7,50.8,30.36,NNE,30,0.0,0.0,90,0.01,CLR,,0.01,WeatherDisplay:10.37,2013-08-25 11:53:00,
2013-08-25 07:58:00,54.1,51.2,30.36,NNE,30,0.0,0.0,90,0.01,CLR,,0.01,WeatherDisplay:10.37,2013-08-25 11:58:00,
2013-08-25 08:03:00,54.6,51.7,30.36,ESE,121,0.0,0.0,90,0.01,CLR,,0.01,WeatherDisplay:10.37,2013-08-25 12:03:00,
2013-08-25 08:08:00,55.1,52.2,30.35,ESE,121,0.0,0.0,90,0.01,CLR,,0.01,WeatherDisplay:10.37,2013-08-25 12:08:00,
2013-08-25 08:13:00,55.9,53.0,30.35,West,259,1.1,0.0,90,0.01,CLR,,0.01,WeatherDisplay:10.37,2013-08-25 12:13:00,
2013-08-25 08:18:00,56.7,54.1,30.35,SE,129,1.1,0.0,91,0.01,CLR,,0.01,WeatherDisplay:10.37,2013-08-25 12:18:00,
2013-08-25 08:23:00,57.2,54.6,30.35,ESE,117,1.1,1.1,91,0.00,CLR,,0.01,WeatherDisplay:10.37,2013-08-25 12:23:00,
2013-08-25 08:28:00,57.7,54.8,30.35,SSW,208,1.1,1.1,90,0.00,CLR,,0.01,WeatherDisplay:10.37,2013-08-25 12:28:00,
2013-08-25 08:33:00,58.3,55.4,30.35,SW,224,0.0,0.0,90,0.00,CLR,,0.01,WeatherDisplay:10.37,2013-08-25 12:33:00,
2013-08-25 08:38:00,58.8,55.9,30.35,SE,136,1.1,0.0,90,0.00,CLR,,0.01,WeatherDisplay:10.37,2013-08-25 12:38:00,
2013-08-25 08:43:00,59.1,56.2,30.35,SE,142,2.0,2.0,90,0.00,CLR,,0.01,WeatherDisplay:10.37,2013-08-25 12:43:00,
2013-08-25 08:48:00,59.9,56.6,30.34,SE,139,1.0,0.0,89,0.00,CLR,,0.01,WeatherDisplay:10.37,2013-08-25 12:48:00,
2013-08-25 08:53:00,60.6,58.0,30.34,ENE,58,1.1,1.1,91,0.00,CLR,,0.01,WeatherDisplay:10.37,2013-08-25 12:53:00,
2013-08-25 08:58:00,61.1,58.8,30.34,SSE,166,2.3,2.3,92,0.00,CLR,,0.01,WeatherDisplay:10.37,2013-08-25 12:58:00,
2013-08-25 09:03:00,61.8,59.5,30.34,SE,129,1.1,1.1,92,0.00,CLR,,0.01,WeatherDisplay:10.37,2013-08-25 13:03:00,
2013-08-25 09:08:00,62.4,59.7,30.34,SE,145,2.3,2.3,91,0.00,CLR,,0.01,WeatherDisplay:10.37,2013-08-25 13:08:00,
2013-08-25 09:13:00,63.0,60.3,30.34,ENE,75,2.3,2.3,91,0.00,CLR,,0.01,WeatherDisplay:10.37,2013-08-25 13:13:00,
2013-08-25 09:18:00,63.4,60.1,30.34,East,99,2.3,2.3,89,0.00,CLR,,0.01,WeatherDisplay:10.37,2013-08-25 13:18:00,
2013-08-25 09:24:00,63.9,60.6,30.33,ENE,77,0.0,0.0,89,0.00,CLR,,0.01,WeatherDisplay:10.37,2013-08-25 13:24:00,
2013-08-25 09:29:00,64.4,60.8,30.33,SSW,201,3.5,3.5,88,0.00,CLR,,0.01,WeatherDisplay:10.37,2013-08-25 13:29:00,
2013-08-25 09:34:00,65.1,61.5,30.34,ESE,108,2.3,2.3,88,0.00,CLR,,0.01,WeatherDisplay:10.37,2013-08-25 13:34:00,
2013-08-25 09:39:00,65.7,61.7,30.33,ESE,108,0.0,0.0,87,0.00,CLR,,0.01,WeatherDisplay:10.37,2013-08-25 13:39:00,
2013-08-25 09:44:00,66.3,62.0,30.33,SE,145,1.1,1.1,86,0.00,CLR,,0.01,WeatherDisplay:10.37,2013-08-25 13:44:00,
2013-08-25 09:49:00,66.9,61.9,30.33,ENE,68,1.1,1.1,84,0.00,CLR,,0.01,WeatherDisplay:10.37,2013-08-25 13:49:00,
2013-08-25 09:54:00,67.6,62.6,30.33,SSE,163,0.0,0.0,84,0.00,CLR,,0.01,WeatherDisplay:10.37,2013-08-25 13:54:00,
2013-08-25 09:59:00,68.4,62.3,30.33,ENE,77,5.0,5.0,81,0.00,CLR,,0.01,WeatherDisplay:10.37,2013-08-25 13:59:00,
2013-08-25 10:04:00,68.6,62.5,30.33,SSE,167,1.1,1.1,81,0.00,CLR,,0.01,WeatherDisplay:10.37,2013-08-25 14:04:00,
2013-08-25 10:09:00,69.2,62.8,30.33,ENE,70,2.3,2.3,80,0.00,CLR,,0.01,WeatherDisplay:10.37,2013-08-25 14:09:00,
2013-08-25 10:14:00,69.7,62.5,30.32,South,170,3.5,3.5,78,0.00,CLR,,0.01,WeatherDisplay:10.37,2013-08-25 14:14:00,
2013-08-25 10:19:00,70.5,64.0,30.32,ESE,120,0.0,0.0,80,0.00,CLR,,0.01,WeatherDisplay:10.37,2013-08-25 14:19:00,
2013-08-25 10:24:00,70.8,63.2,30.32,SE,132,3.0,3.0,77,0.00,CLR,,0.01,WeatherDisplay:10.37,2013-08-25 14:24:00,
2013-08-25 10:29:00,71.2,63.6,30.32,SSE,158,1.1,1.1,77,0.00,CLR,,0.01,WeatherDisplay:10.37,2013-08-25 14:29:00,
2013-08-25 10:34:00,71.6,63.6,30.32,SE,145,2.3,2.3,76,0.00,CLR,,0.01,WeatherDisplay:10.37,2013-08-25 14:34:00,
2013-08-25 10:39:00,72.3,63.9,30.32,SSE,162,1.1,1.1,75,0.00,CLR,,0.01,WeatherDisplay:10.37,2013-08-25 14:39:00,
2013-08-25 10:44:00,72.7,64.7,30.32,SW,229,1.1,1.1,76,0.00,CLR,,0.01,WeatherDisplay:10.37,2013-08-25 14:44:00,
2013-08-25 10:49:00,73.4,63.4,30.32,East,97,3.5,3.5,71,0.00,CLR,,0.01,WeatherDisplay:10.37,2013-08-25 14:49:00,
2013-08-25 10:54:00,73.9,64.3,30.32,SW,229,2.3,2.3,72,0.00,CLR,,0.01,WeatherDisplay:10.37,2013-08-25 14:54:00,
2013-08-25 10:59:00,74.2,64.2,30.32,West,277,0.0,0.0,71,0.00,CLR,,0.01,WeatherDisplay:10.37,2013-08-25 14:59:00,
2013-08-25 11:04:00,74.6,64.6,30.32,ESE,113,1.1,0.0,71,0.00,CLR,,0.01,WeatherDisplay:10.37,2013-08-25 15:04:00,
2013-08-25 11:09:00,75.2,64.7,30.31,SSE,166,1.1,1.1,70,0.00,CLR,,0.01,WeatherDisplay:10.37,2013-08-25 15:09:00,
2013-08-25 11:14:00,75.9,65.4,30.32,North,1,1.1,1.1,70,0.00,CLR,,0.01,WeatherDisplay:10.37,2013-08-25 15:14:00,
2013-08-25 11:19:00,76.1,63.9,30.31,NW,311,2.3,2.3,66,0.00,CLR,,0.01,WeatherDisplay:10.37,2013-08-25 15:19:00,
2013-08-25 11:24:00,75.8,64.1,30.32,WSW,249,3.5,3.5,67,0.00,CLR,,0.01,WeatherDisplay:10.37,2013-08-25 15:24:00,
2013-08-25 11:29:00,76.4,65.5,30.32,East,101,3.5,3.5,69,0.00,CLR,,0.01,WeatherDisplay:10.37,2013-08-25 15:29:00,
2013-08-25 11:34:00,76.4,63.8,30.32,ESE,104,3.5,3.5,65,0.00,CLR,,0.01,WeatherDisplay:10.37,2013-08-25 15:34:00,
2013-08-25 11:39:00,76.4,64.2,30.32,SW,217,2.3,2.3,66,0.00,CLR,,0.01,WeatherDisplay:10.37,2013-08-25 15:39:00,
2013-08-25 11:44:00,77.2,65.8,30.32,WNW,287,1.0,1.0,68,0.00,CLR,,0.01,WeatherDisplay:10.37,2013-08-25 15:44:00,
2013-08-25 11:49:00,77.4,64.7,30.31,West,270,1.1,0.0,65,0.00,CLR,,0.01,WeatherDisplay:10.37,2013-08-25 15:49:00,
2013-08-25 11:54:00,78.0,65.7,30.31,NW,311,2.3,2.3,66,0.00,CLR,,0.01,WeatherDisplay:10.37,2013-08-25 15:54:00,
2013-08-25 11:59:00,78.3,64.7,30.30,SSE,162,3.5,3.5,63,0.00,CLR,,0.01,WeatherDisplay:10.37,2013-08-25 15:59:00,
2013-08-25 12:04:00,78.8,65.1,30.31,SSW,201,1.1,1.1,63,0.00,CLR,,0.01,WeatherDisplay:10.37,2013-08-25 16:04:00,
2013-08-25 12:09:00,78.9,63.8,30.30,East,96,3.5,3.5,60,0.00,CLR,,0.01,WeatherDisplay:10.37,2013-08-25 16:09:00,
2013-08-25 12:14:00,78.5,66.2,30.30,SW,231,1.1,0.0,66,0.00,CLR,,0.01,WeatherDisplay:10.37,2013-08-25 16:14:00,
2013-08-25 12:19:00,78.6,63.6,30.30,WNW,302,1.1,1.1,60,0.00,CLR,,0.01,WeatherDisplay:10.37,2013-08-25 16:19:00,
2013-08-25 12:24:00,79.3,65.6,30.30,ESE,117,0.0,0.0,63,0.00,CLR,,0.01,WeatherDisplay:10.37,2013-08-25 16:24:00,
2013-08-25 12:29:00,79.6,63.0,30.29,SSW,200,3.5,3.5,57,0.00,CLR,,0.01,WeatherDisplay:10.37,2013-08-25 16:29:00,
2013-08-25 12:34:00,80.1,63.5,30.29,ESE,114,2.3,2.3,57,0.00,CLR,,0.01,WeatherDisplay:10.37,2013-08-25 16:34:00,
2013-08-25 12:39:00,80.5,64.4,30.28,SW,222,1.1,1.1,58,0.00,CLR,,0.01,WeatherDisplay:10.37,2013-08-25 16:39:00,
2013-08-25 12:44:00,81.0,65.8,30.28,SSW,205,1.1,1.1,60,0.00,CLR,,0.01,WeatherDisplay:10.37,2013-08-25 16:44:00,
2013-08-25 12:49:00,80.7,62.5,30.28,NNW,345,2.3,2.3,54,0.00,CLR,,0.01,WeatherDisplay:10.37,2013-08-25 16:49:00,
2013-08-25 12:54:00,80.9,65.2,30.27,WSW,256,2.3,2.3,59,0.00,CLR,,0.01,WeatherDisplay:10.37,2013-08-25 16:54:00,
2013-08-25 12:59:00,81.3,62.5,30.27,SW,226,2.3,2.3,53,0.00,CLR,,0.01,WeatherDisplay:10.37,2013-08-25 16:59:00,
2013-08-25 13:04:00,81.3,62.0,30.27,SSE,166,3.5,3.5,52,0.00,CLR,,0.01,WeatherDisplay:10.37,2013-08-25 17:04:00,
2013-08-25 13:09:00,81.3,64.1,30.27,East,90,2.3,2.3,56,0.00,CLR,,0.01,WeatherDisplay:10.37,2013-08-25 17:09:00,
2013-08-25 13:14:00,81.3,61.4,30.27,West,267,4.6,4.6,51,0.00,CLR,,0.01,WeatherDisplay:10.37,2013-08-25 17:14:00,
2013-08-25 13:20:00,81.7,61.8,30.27,NW,312,2.3,2.3,51,0.00,CLR,,0.01,WeatherDisplay:10.37,2013-08-25 17:20:00,
2013-08-25 13:25:00,82.0,61.5,30.26,NE,51,1.1,1.1,50,0.00,CLR,,0.01,WeatherDisplay:10.37,2013-08-25 17:25:00,
2013-08-25 13:30:00,82.2,60.6,30.26,ENE,77,5.8,5.8,48,0.00,CLR,,0.01,WeatherDisplay:10.37,2013-08-25 17:30:00,
2013-08-25 13:35:00,82.0,62.1,30.26,NNW,345,1.1,1.1,51,0.00,CLR,,0.01,WeatherDisplay:10.37,2013-08-25 17:35:00,
2013-08-25 13:40:00,82.0,61.5,30.26,ENE,73,1.1,1.1,50,0.00,CLR,,0.01,WeatherDisplay:10.37,2013-08-25 17:40:00,
2013-08-25 13:45:00,81.8,61.3,30.26,SW,235,4.6,4.6,50,0.00,CLR,,0.01,WeatherDisplay:10.37,2013-08-25 17:45:00,
2013-08-25 13:50:00,82.0,63.2,30.26,NNE,25,6.0,6.0,53,0.00,CLR,,0.01,WeatherDisplay:10.37,2013-08-25 17:50:00,
2013-08-25 13:55:00,81.7,61.8,30.26,WSW,242,3.5,3.5,51,0.00,CLR,,0.01,WeatherDisplay:10.37,2013-08-25 17:55:00,
2013-08-25 14:00:00,81.5,59.3,30.26,NNE,18,8.1,8.1,47,0.00,CLR,,0.01,WeatherDisplay:10.37,2013-08-25 18:00:00,
2013-08-25 14:05:00,81.7,62.9,30.26,WNW,288,2.0,2.0,53,0.00,CLR,,0.01,WeatherDisplay:10.37,2013-08-25 18:05:00,
2013-08-25 14:10:00,81.6,60.6,30.26,North,354,5.8,5.8,49,0.00,CLR,,0.01,WeatherDisplay:10.37,2013-08-25 18:10:00,
2013-08-25 14:15:00,82.3,61.8,30.26,SW,226,1.1,1.1,50,0.00,CLR,,0.01,WeatherDisplay:10.37,2013-08-25 18:15:00,
2013-08-25 14:20:00,82.3,62.9,30.26,WSW,239,3.5,3.5,52,0.00,CLR,,0.01,WeatherDisplay:10.37,2013-08-25 18:20:00,
2013-08-25 14:25:00,82.0,62.1,30.26,ESE,117,1.1,1.1,51,0.00,CLR,,0.01,WeatherDisplay:10.37,2013-08-25 18:25:00,
2013-08-25 14:30:00,82.4,63.5,30.26,NE,42,1.1,0.0,53,0.00,CLR,,0.01,WeatherDisplay:10.37,2013-08-25 18:30:00,
2013-08-25 14:35:00,82.2,62.3,30.26,NNW,329,4.6,4.6,51,0.00,CLR,,0.01,WeatherDisplay:10.37,2013-08-25 18:35:00,
2013-08-25 14:40:00,81.8,64.1,30.26,SSW,208,1.1,1.1,55,0.00,CLR,,0.01,WeatherDisplay:10.37,2013-08-25 18:40:00,
2013-08-25 14:45:00,81.7,62.9,30.26,SE,129,1.1,1.1,53,0.00,CLR,,0.01,WeatherDisplay:10.37,2013-08-25 18:45:00,
2013-08-25 14:50:00,81.5,61.1,30.26,North,352,1.1,1.1,50,0.00,CLR,,0.01,WeatherDisplay:10.37,2013-08-25 18:50:00,
2013-08-25 14:55:00,82.1,64.3,30.25,East,82,3.5,3.5,55,0.00,CLR,,0.01,WeatherDisplay:10.37,2013-08-25 18:55:00,
2013-08-25 15:00:00,82.1,61.6,30.25,SW,215,2.3,2.3,50,0.00,CLR,,0.01,WeatherDisplay:10.37,2013-08-25 19:00:00,
2013-08-25 15:05:00,82.0,63.2,30.25,WSW,252,1.1,1.1,53,0.00,CLR,,0.01,WeatherDisplay:10.37,2013-08-25 19:05:00,
2013-08-25 15:10:00,81.9,63.6,30.25,East,93,2.3,2.3,54,0.00,CLR,,0.01,WeatherDisplay:10.37,2013-08-25 19:10:00,
2013-08-25 15:15:00,81.3,60.9,30.25,SE,146,2.3,2.3,50,0.00,CLR,,0.01,WeatherDisplay:10.37,2013-08-25 19:15:00,
2013-08-25 15:20:00,81.4,63.7,30.24,WSW,248,2.3,2.3,55,0.00,CLR,,0.01,WeatherDisplay:10.37,2013-08-25 19:20:00,
2013-08-25 15:25:00,81.2,63.5,30.24,SSE,153,1.1,1.1,55,0.00,CLR,,0.01,WeatherDisplay:10.37,2013-08-25 19:25:00,
2013-08-25 15:30:00,81.4,61.0,30.24,West,259,2.3,2.3,50,0.00,CLR,,0.01,WeatherDisplay:10.37,2013-08-25 19:30:00,
2013-08-25 15:35:00,81.5,63.3,30.24,North,360,1.1,1.1,54,0.00,CLR,,0.01,WeatherDisplay:10.37,2013-08-25 19:35:00,
2013-08-25 15:40:00,81.5,62.2,30.23,West,278,0.0,0.0,52,0.00,CLR,,0.01,WeatherDisplay:10.37,2013-08-25 19:40:00,
2013-08-25 15:45:00,81.5,65.3,30.23,ESE,104,0.0,0.0,58,0.00,CLR,,0.01,WeatherDisplay:10.37,2013-08-25 19:45:00,
2013-08-25 15:50:00,81.4,64.7,30.23,ENE,65,1.1,1.1,57,0.00,CLR,,0.01,WeatherDisplay:10.37,2013-08-25 19:50:00,
2013-08-25 15:55:00,81.0,65.8,30.22,East,93,0.0,0.0,60,0.00,CLR,,0.01,WeatherDisplay:10.37,2013-08-25 19:55:00,
2013-08-25 16:00:00,81.0,66.8,30.22,East,98,0.0,0.0,62,0.00,CLR,,0.01,WeatherDisplay:10.37,2013-08-25 20:00:00,
2013-08-25 16:05:00,80.8,64.1,30.22,ESE,118,0.0,0.0,57,0.00,CLR,,0.01,WeatherDisplay:10.37,2013-08-25 20:05:00,
2013-08-25 16:10:00,81.2,66.0,30.21,ESE,114,0.0,0.0,60,0.00,CLR,,0.01,WeatherDisplay:10.37,2013-08-25 20:10:00,
2013-08-25 16:15:00,81.4,66.2,30.22,SE,132,0.0,0.0,60,0.00,CLR,,0.01,WeatherDisplay:10.37,2013-08-25 20:15:00,
2013-08-25 16:20:00,81.6,65.9,30.22,NE,49,5.0,5.0,59,0.00,CLR,,0.01,WeatherDisplay:10.37,2013-08-25 20:20:00,
2013-08-25 16:25:00,81.6,61.7,30.22,WSW,246,2.3,2.3,51,0.00,CLR,,0.01,WeatherDisplay:10.37,2013-08-25 20:25:00,
2013-08-25 16:30:00,81.6,64.4,30.22,SW,228,1.1,1.1,56,0.00,CLR,,0.01,WeatherDisplay:10.37,2013-08-25 20:30:00,
2013-08-25 16:35:00,81.4,62.6,30.22,NNW,345,0.0,0.0,53,0.00,CLR,,0.01,WeatherDisplay:10.37,2013-08-25 20:35:00,
2013-08-25 16:40:00,81.2,62.4,30.22,NNW,336,0.0,0.0,53,0.00,CLR,,0.01,WeatherDisplay:10.37,2013-08-25 20:40:00,
2013-08-25 16:45:00,81.0,64.3,30.22,West,267,2.0,2.0,57,0.00,CLR,,0.01,WeatherDisplay:10.37,2013-08-25 20:45:00,
2013-08-25 16:50:00,80.8,61.5,30.22,NNE,16,0.0,0.0,52,0.00,CLR,,0.01,WeatherDisplay:10.37,2013-08-25 20:50:00,
2013-08-25 16:55:00,80.5,64.4,30.21,NNE,20,0.0,0.0,58,0.00,CLR,,0.01,WeatherDisplay:10.37,2013-08-25 20:55:00,
2013-08-25 17:00:00,79.8,64.2,30.20,NNE,27,0.0,0.0,59,0.00,CLR,,0.01,WeatherDisplay:10.37,2013-08-25 21:00:00,
2013-08-25 17:05:00,79.4,63.3,30.20,NNE,27,0.0,0.0,58,0.00,CLR,,0.01,WeatherDisplay:10.37,2013-08-25 21:05:00,
2013-08-25 17:10:00,79.2,65.5,30.20,NNE,27,0.0,0.0,63,0.00,CLR,,0.01,WeatherDisplay:10.37,2013-08-25 21:10:00,
2013-08-25 17:15:00,79.2,66.0,30.20,NNE,27,0.0,0.0,64,0.00,CLR,,0.01,WeatherDisplay:10.37,2013-08-25 21:15:00,
2013-08-25 17:20:00,79.0,67.5,30.20,NNE,27,0.0,0.0,68,0.00,CLR,,0.01,WeatherDisplay:10.37,2013-08-25 21:20:00,
2013-08-25 17:25:00,78.7,65.9,30.19,NNE,27,0.0,0.0,65,0.00,CLR,,0.01,WeatherDisplay:10.37,2013-08-25 21:25:00,
2013-08-25 17:30:00,78.6,66.3,30.19,NNE,27,0.0,0.0,66,0.00,CLR,,0.01,WeatherDisplay:10.37,2013-08-25 21:30:00,
2013-08-25 17:35:00,78.5,66.6,30.20,NNE,27,0.0,0.0,67,0.00,CLR,,0.01,WeatherDisplay:10.37,2013-08-25 21:35:00,
2013-08-25 17:40:00,78.5,67.5,30.19,NNE,33,0.0,0.0,69,0.00,CLR,,0.01,WeatherDisplay:10.37,2013-08-25 21:40:00,
2013-08-25 17:45:00,78.3,66.9,30.19,NNE,33,0.0,0.0,68,0.00,CLR,,0.01,WeatherDisplay:10.37,2013-08-25 21:45:00,
2013-08-25 17:50:00,77.9,66.5,30.19,NNE,33,0.0,0.0,68,0.00,CLR,,0.01,WeatherDisplay:10.37,2013-08-25 21:50:00,
2013-08-25 17:55:00,77.3,64.6,30.18,NNE,25,0.0,0.0,65,0.00,CLR,,0.01,WeatherDisplay:10.37,2013-08-25 21:55:00,
2013-08-25 18:00:00,77.0,66.5,30.18,NNE,25,0.0,0.0,70,0.00,CLR,,0.01,WeatherDisplay:10.37,2013-08-25 22:00:00,
2013-08-25 18:05:00,76.4,65.1,30.18,NNE,25,0.0,0.0,68,0.00,CLR,,0.01,WeatherDisplay:10.37,2013-08-25 22:05:00,
2013-08-25 18:10:00,76.0,64.2,30.18,NNE,25,0.0,0.0,67,0.00,CLR,,0.01,WeatherDisplay:10.37,2013-08-25 22:10:00,
2013-08-25 18:15:00,75.6,63.9,30.18,North,3,0.0,0.0,67,0.00,CLR,,0.01,WeatherDisplay:10.37,2013-08-25 22:15:00,
2013-08-25 18:20:00,75.0,65.0,30.17,North,4,0.0,0.0,71,0.00,CLR,,0.01,WeatherDisplay:10.37,2013-08-25 22:20:00,
2013-08-25 18:25:00,74.6,66.1,30.16,North,4,0.0,0.0,75,0.00,CLR,,0.01,WeatherDisplay:10.37,2013-08-25 22:25:00,
2013-08-25 18:30:00,74.1,66.0,30.16,North,4,0.0,0.0,76,0.00,CLR,,0.01,WeatherDisplay:10.37,2013-08-25 22:30:00,
2013-08-25 18:35:00,73.7,65.7,30.16,North,3,0.0,0.0,76,0.00,CLR,,0.01,WeatherDisplay:10.37,2013-08-25 22:35:00,
2013-08-25 18:40:00,73.4,65.0,30.15,North,4,0.0,0.0,75,0.00,CLR,,0.01,WeatherDisplay:10.37,2013-08-25 22:40:00,
2013-08-25 18:46:00,73.2,65.2,30.15,North,4,0.0,0.0,76,0.00,CLR,,0.01,WeatherDisplay:10.37,2013-08-25 22:46:00,
2013-08-25 18:51:00,73.1,65.8,30.15,North,4,0.0,0.0,78,0.00,CLR,,0.01,WeatherDisplay:10.37,2013-08-25 22:51:00,
2013-08-25 18:56:00,73.1,66.2,30.14,North,4,0.0,0.0,79,0.00,CLR,,0.01,WeatherDisplay:10.37,2013-08-25 22:56:00,
2013-08-25 19:01:00,73.0,65.7,30.14,North,3,0.0,0.0,78,0.00,CLR,,0.01,WeatherDisplay:10.37,2013-08-25 23:01:00,
2013-08-25 19:06:00,72.8,65.9,30.14,North,4,0.0,0.0,79,0.00,CLR,,0.01,WeatherDisplay:10.37,2013-08-25 23:06:00,
2013-08-25 19:11:00,72.6,66.1,30.14,North,3,0.0,0.0,80,0.00,CLR,,0.01,WeatherDisplay:10.37,2013-08-25 23:11:00,
2013-08-25 19:16:00,72.0,64.8,30.15,North,4,0.0,0.0,78,0.00,CLR,,0.01,WeatherDisplay:10.37,2013-08-25 23:16:00,
2013-08-25 19:21:00,71.5,64.6,30.15,North,4,0.0,0.0,79,0.00,CLR,,0.01,WeatherDisplay:10.37,2013-08-25 23:21:00,
2013-08-25 19:26:00,71.3,64.8,30.15,North,4,0.0,0.0,80,0.00,CLR,,0.01,WeatherDisplay:10.37,2013-08-25 23:26:00,
2013-08-25 19:31:00,71.2,65.1,30.15,North,4,0.0,0.0,81,0.00,CLR,,0.01,WeatherDisplay:10.37,2013-08-25 23:31:00,
2013-08-25 19:36:00,71.0,65.2,30.15,North,3,0.0,0.0,82,0.00,CLR,,0.01,WeatherDisplay:10.37,2013-08-25 23:36:00,
2013-08-25 19:41:00,70.9,65.8,30.16,North,4,0.0,0.0,84,0.00,CLR,,0.01,WeatherDisplay:10.37,2013-08-25 23:41:00,
2013-08-25 19:46:00,70.7,65.6,30.15,North,4,0.0,0.0,84,0.00,CLR,,0.01,WeatherDisplay:10.37,2013-08-25 23:46:00,
2013-08-25 19:51:00,70.5,65.4,30.15,North,3,0.0,0.0,84,0.00,CLR,,0.01,WeatherDisplay:10.37,2013-08-25 23:51:00,
2013-08-25 19:56:00,70.4,65.3,30.15,North,4,0.0,0.0,84,0.00,CLR,,0.01,WeatherDisplay:10.37,2013-08-25 23:56:00,
2013-08-25 20:01:00,70.3,65.9,30.15,North,1,0.0,0.0,86,0.00,,,0.01,WeatherDisplay:10.37,2013-08-26 00:01:00,
2013-08-25 20:06:00,70.1,65.7,30.15,North,3,0.0,0.0,86,0.00,,,0.01,WeatherDisplay:10.37,2013-08-26 00:06:00,
2013-08-25 20:11:00,69.9,65.5,30.15,North,4,0.0,0.0,86,0.00,,,0.01,WeatherDisplay:10.37,2013-08-26 00:11:00,
2013-08-25 20:16:00,69.6,65.2,30.14,North,3,0.0,0.0,86,0.00,,,0.01,WeatherDisplay:10.37,2013-08-26 00:16:00,
2013-08-25 20:21:00,69.4,65.0,30.14,North,3,0.0,0.0,86,0.00,,,0.01,WeatherDisplay:10.37,2013-08-26 00:21:00,
2013-08-25 20:26:00,69.1,64.7,30.14,North,3,0.0,0.0,86,0.00,,,0.01,WeatherDisplay:10.37,2013-08-26 00:26:00,
2013-08-25 20:31:00,68.9,64.9,30.14,North,4,0.0,0.0,87,0.00,,,0.01,WeatherDisplay:10.37,2013-08-26 00:31:00,
2013-08-25 20:36:00,68.7,64.7,30.14,North,4,0.0,0.0,87,0.00,,,0.01,WeatherDisplay:10.37,2013-08-26 00:36:00,
2013-08-25 20:41:00,68.5,64.5,30.14,North,3,0.0,0.0,87,0.00,,,0.01,WeatherDisplay:10.37,2013-08-26 00:41:00,
2013-08-25 20:46:00,68.4,64.7,30.14,North,4,0.0,0.0,88,0.00,,,0.01,WeatherDisplay:10.37,2013-08-26 00:46:00,
2013-08-25 20:51:00,68.4,64.7,30.13,North,4,0.0,0.0,88,0.00,,,0.01,WeatherDisplay:10.37,2013-08-26 00:51:00,
2013-08-25 20:56:00,68.2,64.5,30.13,North,3,0.0,0.0,88,0.00,,,0.01,WeatherDisplay:10.37,2013-08-26 00:56:00,
2013-08-25 21:01:00,68.2,64.5,30.13,North,4,0.0,0.0,88,0.00,,,0.01,WeatherDisplay:10.37,2013-08-26 01:01:00,
2013-08-25 21:06:00,68.1,64.4,30.13,North,3,0.0,0.0,88,0.00,,,0.01,WeatherDisplay:10.37,2013-08-26 01:06:00,
2013-08-25 21:11:00,68.1,64.4,30.12,North,3,0.0,0.0,88,0.00,,,0.01,WeatherDisplay:10.37,2013-08-26 01:11:00,
2013-08-25 21:16:00,68.0,64.3,30.12,North,3,0.0,0.0,88,0.00,,,0.01,WeatherDisplay:10.37,2013-08-26 01:16:00,
2013-08-25 21:21:00,67.9,64.2,30.13,North,3,0.0,0.0,88,0.00,,,0.01,WeatherDisplay:10.37,2013-08-26 01:21:00,
2013-08-25 21:26:00,67.8,63.5,30.13,North,3,0.0,0.0,86,0.00,,,0.01,WeatherDisplay:10.37,2013-08-26 01:26:00,
2013-08-25 21:31:00,68.2,63.5,30.13,SSE,160,0.0,0.0,85,0.00,,,0.01,WeatherDisplay:10.37,2013-08-26 01:31:00,
2013-08-25 21:36:00,68.6,62.5,30.13,South,172,0.0,0.0,81,0.00,,,0.01,WeatherDisplay:10.37,2013-08-26 01:36:00,
2013-08-25 21:41:00,68.9,63.5,30.14,SW,224,0.0,0.0,83,0.00,,,0.01,WeatherDisplay:10.37,2013-08-26 01:41:00,
2013-08-25 21:46:00,69.1,62.3,30.14,SW,224,0.0,0.0,79,0.00,,,0.01,WeatherDisplay:10.37,2013-08-26 01:46:00,
2013-08-25 21:51:00,69.0,62.2,30.15,SW,224,0.0,0.0,79,0.00,,,0.01,WeatherDisplay:10.37,2013-08-26 01:51:00,
2013-08-25 21:56:00,68.8,62.0,30.15,SW,224,0.0,0.0,79,0.00,,,0.01,WeatherDisplay:10.37,2013-08-26 01:56:00,
2013-08-25 22:01:00,68.5,62.4,30.15,SW,224,0.0,0.0,81,0.00,,,0.01,WeatherDisplay:10.37,2013-08-26 02:01:00,
2013-08-25 22:06:00,68.1,62.4,30.15,SW,224,0.0,0.0,82,0.00,,,0.01,WeatherDisplay:10.37,2013-08-26 02:06:00,
2013-08-25 22:11:00,67.6,61.6,30.15,SW,224,0.0,0.0,81,0.00,,,0.01,WeatherDisplay:10.37,2013-08-26 02:11:00,
2013-08-25 22:16:00,67.3,62.0,30.15,SW,224,0.0,0.0,83,0.00,,,0.01,WeatherDisplay:10.37,2013-08-26 02:16:00,
2013-08-25 22:21:00,67.1,62.1,30.15,SW,224,0.0,0.0,84,0.00,,,0.01,WeatherDisplay:10.37,2013-08-26 02:21:00,
2013-08-25 22:26:00,66.8,61.8,30.15,SW,224,0.0,0.0,84,0.00,,,0.01,WeatherDisplay:10.37,2013-08-26 02:26:00,
2013-08-25 22:31:00,66.6,61.9,30.15,SW,224,0.0,0.0,85,0.00,,,0.01,WeatherDisplay:10.37,2013-08-26 02:31:00,
2013-08-25 22:36:00,66.4,62.4,30.15,SW,224,0.0,0.0,87,0.00,,,0.01,WeatherDisplay:10.37,2013-08-26 02:36:00,
2013-08-25 22:41:00,66.2,62.2,30.15,SW,224,0.0,0.0,87,0.00,,,0.01,WeatherDisplay:10.37,2013-08-26 02:41:00,
2013-08-25 22:46:00,66.1,62.4,30.15,SW,224,0.0,0.0,88,0.00,,,0.01,WeatherDisplay:10.37,2013-08-26 02:46:00,
2013-08-25 22:51:00,66.0,62.3,30.15,SW,224,0.0,0.0,88,0.00,,,0.01,WeatherDisplay:10.37,2013-08-26 02:51:00,
2013-08-25 22:56:00,66.0,61.7,30.16,SW,224,0.0,0.0,86,0.00,,,0.01,WeatherDisplay:10.37,2013-08-26 02:56:00,
2013-08-25 23:02:00,66.0,61.7,30.17,SW,224,0.0,0.0,86,0.00,,,0.01,WeatherDisplay:10.37,2013-08-26 03:02:00,
2013-08-25 23:07:00,66.2,61.9,30.19,SW,224,0.0,0.0,86,0.00,,,0.01,WeatherDisplay:10.37,2013-08-26 03:07:00,
2013-08-25 23:12:00,66.4,62.1,30.19,SW,224,0.0,0.0,86,0.00,,,0.01,WeatherDisplay:10.37,2013-08-26 03:12:00,
2013-08-25 23:17:00,66.5,62.5,30.19,SW,224,0.0,0.0,87,0.00,,,0.01,WeatherDisplay:10.37,2013-08-26 03:17:00,
2013-08-25 23:22:00,66.6,62.9,30.19,SW,224,0.0,0.0,88,0.00,,,0.01,WeatherDisplay:10.37,2013-08-26 03:22:00,
2013-08-25 23:27:00,66.5,62.5,30.18,SW,224,0.0,0.0,87,0.00,,,0.01,WeatherDisplay:10.37,2013-08-26 03:27:00,
2013-08-25 23:32:00,66.4,62.4,30.18,SW,224,0.0,0.0,87,0.00,,,0.01,WeatherDisplay:10.37,2013-08-26 03:32:00,
2013-08-25 23:37:00,66.5,62.5,30.17,ESE,113,0.0,0.0,87,0.00,,,0.01,WeatherDisplay:10.37,2013-08-26 03:37:00,
2013-08-25 23:42:00,66.5,61.8,30.17,SSE,162,0.0,0.0,85,0.00,,,0.01,WeatherDisplay:10.37,2013-08-26 03:42:00,
2013-08-25 23:47:00,66.6,61.9,30.16,SSE,155,0.0,0.0,85,0.00,,,0.01,WeatherDisplay:10.37,2013-08-26 03:47:00,
2013-08-25 23:52:00,66.6,62.6,30.16,SSE,155,0.0,0.0,87,0.00,,,0.01,WeatherDisplay:10.37,2013-08-26 03:52:00,
2013-08-25 23:57:00,66.4,62.7,30.15,ESE,109,0.0,0.1,88,0.00,,,0.01,WeatherDisplay:10.37,2013-08-26 03:57:00,